Location: Winthrop
(48.4780°N, 120.1850°W)
Time: 23:14:13
(UTC-08:00)

Explorer 11/Cluster Stage 4 - Visible Passes

Search period start: 05 February 2023 00:00
Search period end: 15 February 2023 00:00
Orbit: 466 x 1244 km, 28.8° (Epoch: 05 February)

Date Brightness Start Highest point End Pass type
(mag) Time Alt. Az. Time Alt. Az. Time Alt. Az.
05 Feb 9.3 04:53:21 11° SSW 04:57:12 16° S 05:01:35 10° SE visible
05 Feb 9.4 06:40:02 10° SW 06:44:49 17° S 06:49:36 10° SSE visible
06 Feb 9.2 04:40:54 13° SSW 04:43:34 16° S 04:47:59 10° SE visible
06 Feb 9.4 06:26:34 10° SW 06:31:11 17° S 06:35:51 10° SSE visible
07 Feb 9.1 04:28:24 15° S 04:29:57 16° S 04:34:19 10° SE visible
07 Feb 9.3 06:13:09 10° SW 06:17:33 16° S 06:22:03 10° SSE visible
08 Feb 9.1 04:15:53 15° S 04:16:21 16° S 04:20:35 10° SE visible
08 Feb 9.3 05:59:50 10° SW 06:03:55 15° S 06:08:07 10° SSE visible
09 Feb 9.2 04:03:21 15° SSE 04:03:21 15° SSE 04:06:46 10° SE visible
09 Feb 9.2 05:46:36 10° SW 05:50:17 14° S 05:54:06 10° SSE visible
10 Feb 9.3 03:50:48 13° SSE 03:50:48 13° SSE 03:52:53 10° SE visible
10 Feb 9.2 05:33:31 10° SW 05:36:39 13° S 05:39:55 10° SSE visible
11 Feb 9.4 03:38:16 11° SSE 03:38:16 11° SSE 03:38:56 10° SSE visible
11 Feb 9.2 05:20:38 10° SSW 05:23:02 12° SSW 05:25:32 10° S visible
12 Feb 9.2 05:08:20 10° SSW 05:09:26 10° SSW 05:10:33 10° S visible
